Theta_e
307 307 307 308 307 308 308 308 308 308 305 304 304 307 306 303 304 309 308 306 306 305 305 311 309 321 324 329 326 324 327 327 325 323 321 322 323 324 326 330 332 333 335 332 334
307 307 307 307 307 306 307 307 306 306 307 308 308 307 305 304 309 308 312 305 304 304 310 311 311 318 324 325 328 327 328 328 326 324 321 320 322 324 327 328 333 332 331 330 331
306 306 306 306 306 306 304 305 306 307 308 308 308 308 304 307 309 312 316 313 307 307 310 312 312 312 320 325 326 329 329 328 328 325 321 320 323 324 325 327 333 334 332 331 330
306 306 306 306 306 303 303 305 306 306 307 308 307 307 305 309 308 308 310 307 307 308 312 315 315 313 316 320 324 327 328 329 328 326 322 322 322 323 324 324 329 330 330 329 331
305 306 306 305 305 303 303 305 306 306 306 306 305 307 310 309 308 307 309 310 309 308 308 309 315 315 314 317 319 324 325 326 327 327 327 324 324 325 326 326 326 326 327 329 331
305 306 305 304 301 302 304 306 306 306 307 306 306 307 310 310 307 309 310 310 310 310 309 308 312 315 315 315 317 320 321 323 325 326 328 328 329 329 329 329 330 331 332 332 330
305 305 304 303 301 303 305 306 307 306 307 307 307 310 312 309 308 309 310 310 310 309 311 309 308 312 316 316 316 317 318 320 323 324 326 326 330 331 329 329 331 331 331 331 331
304 305 304 302 301 304 305 305 306 306 307 308 308 311 311 308 309 310 310 310 310 309 309 309 308 309 311 316 316 315 317 319 320 322 323 325 330 330 329 329 330 330 330 330 330
302 303 301 300 301 304 305 305 306 307 308 309 313 312 309 308 308 308 309 309 310 310 309 309 309 309 309 312 315 316 317 318 319 320 322 322 326 327 327 327 328 329 329 329 329
302 302 303 302 301 305 306 306 305 311 311 311 311 313 309 308 308 307 308 309 310 310 310 311 311 311 311 310 313 314 317 317 317 319 321 322 323 323 324 326 326 327 328 328 328
298 300 301 301 301 305 307 309 311 311 309 309 310 309 309 308 307 308 308 308 310 310 310 311 311 310 310 311 311 312 315 317 318 318 319 321 322 323 324 324 325 326 326 327 327
300 302 302 302 303 305 308 309 309 309 311 309 309 309 308 308 309 308 308 308 309 310 310 310 310 310 310 309 310 311 313 316 317 317 319 320 321 322 322 323 324 325 326 326 326
300 302 304 303 304 308 308 309 308 308 311 308 309 309 308 308 308 308 308 308 309 309 309 310 309 309 309 309 309 310 311 313 315 316 318 319 321 322 322 323 323 323 324 324 324
302 304 305 303 307 308 309 308 308 309 312 308 309 309 308 308 308 307 308 309 309 309 309 310 310 309 309 310 310 310 309 310 313 316 318 319 321 321 321 322 322 322 323 323 324
301 303 303 304 308 310 309 308 308 308 312 307 308 308 309 309 308 307 307 310 309 308 309 309 309 310 311 310 310 310 309 309 312 314 317 317 319 319 320 321 321 322 322 322 322
302 306 303 304 307 309 308 308 308 313 311 308 308 309 309 309 308 307 307 308 309 310 312 311 311 312 312 312 311 310 309 310 310 313 316 317 318 319 319 320 320 320 321 321 320
303 305 306 306 310 308 308 309 312 313 308 309 309 309 310 309 308 307 308 308 311 312 312 311 312 313 313 314 311 309 309 311 312 313 314 315 316 317 319 318 318 319 319 320 321
303 305 305 308 309 309 309 309 312 308 308 309 310 310 310 308 309 308 308 309 311 311 312 315 314 312 313 316 312 310 309 311 312 313 313 312 314 316 316 317 318 318 320 320 322
305 310 310 310 309 308 312 310 309 308 309 310 310 309 309 308 309 308 308 309 310 310 312 313 312 311 313 314 314 313 312 311 311 312 315 312 313 314 315 317 318 319 319 324 327
306 311 311 308 309 310 310 308 308 307 308 310 311 309 310 310 309 309 309 308 308 309 310 311 314 311 312 312 312 311 311 311 311 317 315 313 314 315 316 316 316 320 321 321 326
308 313 308 307 308 310 310 306 307 307 308 310 310 310 310 310 309 309 309 308 309 309 309 310 311 312 311 312 311 312 311 315 314 315 313 313 314 316 318 320 321 320 320 322 330
308 311 308 306 310 311 307 306 305 308 309 309 310 311 311 310 310 310 310 309 309 309 310 311 313 312 311 310 310 312 312 315 320 315 314 315 317 319 320 319 319 319 319 321 328
308 308 308 306 311 309 304 305 306 308 309 309 310 310 310 310 312 310 310 309 309 309 311 313 313 313 310 314 313 311 310 311 313 315 320 316 315 319 318 317 317 318 319 320 321
306 309 309 307 307 305 305 306 308 307 308 309 310 308 310 311 310 310 310 309 309 310 310 311 313 313 314 311 310 310 311 311 312 315 313 313 315 316 317 316 317 318 319 318 319
305 307 307 309 310 308 308 306 306 308 308 308 309 309 309 311 311 310 310 311 310 309 311 311 315 312 311 311 310 310 310 310 312 312 313 313 314 314 315 316 317 318 317 317 318
306 306 306 307 307 308 307 307 305 306 307 306 308 309 309 310 310 311 310 311 314 311 311 312 317 313 313 312 311 311 311 311 310 310 311 312 313 313 313 313 314 314 316 317 319
301 301 301 305 307 306 308 307 307 306 306 306 307 308 309 309 309 309 309 310 310 312 311 314 313 313 313 310 311 311 310 311 310 310 311 312 313 314 314 313 314 315 315 318 320
Wind_Speed
14 14 15 16 17 17 17 16 16 16 16 17 18 18 19 19 21 10 8 3 5 10 9 11 9 8 12 16 17 13 11 17 22 19 14 6 16 18 7 12 9 2 1 7 1
15 15 16 16 17 18 17 16 15 15 15 17 17 18 17 17 17 5 3 7 8 10 7 10 12 11 13 17 12 16 16 26 20 14 8 17 16 13 7 16 14 11 7 5 6
17 17 18 18 18 17 16 14 15 16 17 16 15 15 14 14 7 4 4 9 15 11 7 7 10 14 20 16 23 22 26 22 22 15 12 18 18 13 13 18 17 16 10 6 4
18 18 19 18 18 16 14 13 16 19 19 15 13 12 11 6 1 2 6 12 6 6 5 3 7 16 20 25 21 26 25 25 26 16 13 21 20 23 21 21 18 7 8 11 13
19 19 19 19 18 16 13 12 15 17 14 9 10 9 6 3 5 4 8 9 4 4 4 8 10 13 24 18 25 29 29 25 23 23 19 18 25 24 24 20 21 20 18 19 16
21 21 21 20 17 14 12 11 13 12 11 9 9 6 4 6 6 5 10 11 6 9 4 8 9 9 16 22 24 16 24 29 28 24 21 25 28 23 26 21 23 22 23 22 19
23 22 22 20 17 14 12 12 15 12 8 6 6 1 3 9 7 11 11 8 7 6 9 7 13 12 6 16 21 23 26 25 23 26 30 19 28 37 30 24 24 21 21 22 21
24 24 23 22 17 15 14 15 16 9 4 4 3 2 2 3 8 9 10 9 4 8 9 8 9 15 19 16 16 17 22 24 32 25 21 22 33 37 27 27 26 27 24 23 23
26 25 24 22 17 14 17 17 7 2 0 3 2 5 4 4 13 11 9 10 13 8 8 8 9 13 13 17 17 20 25 30 27 28 24 20 34 36 31 28 25 24 24 22 23
26 27 25 23 16 12 15 6 4 4 3 3 3 5 2 8 16 16 8 10 7 9 10 11 8 12 12 15 21 26 25 25 27 23 27 30 35 29 25 17 18 22 25 24 23
28 27 24 22 16 8 12 5 5 6 5 7 4 5 6 14 15 13 11 10 6 8 11 11 12 14 15 18 24 25 28 24 20 20 25 25 31 33 28 30 31 26 22 23 22
29 25 24 18 11 5 6 4 4 5 7 4 8 7 8 5 13 11 5 8 9 14 14 12 16 17 17 16 20 21 24 29 24 13 18 24 31 31 27 29 28 27 26 24 23
33 27 24 14 3 3 4 5 2 6 6 1 2 4 1 10 9 7 14 9 12 14 14 16 17 16 10 13 18 22 25 24 27 22 19 21 28 28 26 24 22 23 24 24 25
35 29 23 7 1 1 1 1 8 4 5 4 3 3 5 13 9 14 5 5 9 16 15 15 10 10 15 20 18 21 21 25 24 22 24 20 22 23 24 28 29 29 26 26 25
37 29 17 3 3 1 2 5 4 4 4 3 3 2 9 8 10 6 6 11 16 18 15 19 20 18 16 18 20 22 19 21 21 22 24 29 19 22 18 22 22 20 22 23 22
37 19 7 3 3 1 4 2 5 5 1 1 2 9 10 9 7 6 8 11 12 16 15 19 16 18 19 19 23 20 22 20 22 19 20 25 21 20 21 25 23 19 20 20 21
33 9 5 4 3 1 3 5 5 4 2 2 7 12 16 8 10 7 12 10 7 8 12 18 5 10 16 23 21 18 17 12 15 18 22 23 20 19 6 8 4 6 7 11 11
25 3 2 0 4 4 5 6 4 2 4 10 11 18 7 8 8 11 8 11 2 8 14 8 8 10 4 10 17 19 19 13 19 16 20 27 27 21 22 25 20 17 9 8 9
13 1 1 4 2 5 7 5 4 5 4 9 15 8 3 4 7 8 12 6 5 9 9 12 9 8 8 13 15 20 18 20 23 21 16 17 26 26 21 13 8 8 4 6 11
9 3 3 6 6 8 5 4 3 3 7 7 9 3 11 13 12 9 9 3 7 5 11 9 11 5 2 7 14 15 16 13 13 8 18 15 20 15 24 23 17 4 5 10 13
6 4 5 5 4 4 3 5 7 5 7 5 9 12 13 13 10 12 6 12 2 11 13 15 7 11 12 7 6 10 13 13 7 13 13 11 14 20 9 12 9 6 10 14 14
7 3 5 4 2 1 4 7 6 4 4 7 7 11 10 12 11 14 11 8 15 13 16 12 6 12 15 9 8 5 10 5 7 12 16 13 4 12 18 13 6 9 13 15 15
7 3 2 5 2 5 5 7 5 6 4 4 7 5 11 14 8 8 12 12 12 14 6 8 4 9 7 5 5 7 13 13 14 14 13 14 7 14 10 3 9 13 15 16 17
4 3 2 2 2 5 9 3 4 3 10 5 10 14 14 13 12 10 18 11 12 17 14 6 11 13 13 18 13 11 11 12 14 11 16 17 24 10 13 13 15 15 16 17 17
2 2 4 3 4 9 8 7 8 6 4 9 6 7 11 9 17 21 14 19 22 20 19 5 10 17 18 20 18 19 19 18 19 19 20 19 22 19 19 18 18 18 20 18 16
4 4 4 10 5 8 1 4 8 7 10 13 12 15 14 18 18 24 22 18 7 8 7 5 7 13 17 16 17 20 21 21 22 22 21 23 27 24 25 23 20 21 19 16 14
1 1 1 6 5 5 5 5 12 14 10 11 11 15 18 20 18 22 22 22 18 10 7 4 7 8 14 14 12 15 17 19 18 20 18 21 24 21 23 22 18 20 17 16 15
Wind_Direction
355 350 347 344 341 339 337 334 331 327 325 325 325 322 322 320 327 304 275 334 318 326 302 275 255 213 218 225 223 233 242 245 244 240 245 260 247 251 246 264 201 174 38 65 19
349 348 345 343 341 339 336 333 331 332 328 323 321 323 326 327 322 296 62 70 20 348 310 254 230 200 211 218 215 218 228 242 249 258 228 247 256 266 245 229 224 212 170 139 84
348 345 343 341 340 340 340 341 341 330 323 320 321 321 323 334 269 73 89 333 337 338 313 273 253 228 227 225 217 224 240 245 250 250 251 256 256 247 248 249 217 217 198 202 301
347 343 341 339 339 342 345 344 341 338 329 322 328 328 331 304 11 42 267 313 321 341 287 255 242 219 228 228 229 239 244 244 258 246 244 248 261 257 253 249 249 230 224 273 287
344 342 339 337 336 338 341 339 340 338 344 351 343 329 340 196 39 353 337 341 332 333 288 254 245 235 239 237 233 237 240 246 244 255 245 256 250 252 251 249 254 256 257 259 265
345 342 339 338 342 344 341 338 334 331 340 339 342 8 300 67 357 339 324 322 311 329 321 248 246 263 277 257 246 241 244 249 254 243 244 246 255 253 246 249 259 261 259 260 259
346 342 339 337 340 342 342 335 323 318 306 324 341 346 288 43 345 334 328 312 297 292 311 292 260 236 272 259 255 256 262 261 246 248 243 246 262 251 250 244 254 257 258 259 258
346 343 340 336 338 341 341 328 317 308 296 331 113 280 314 352 339 331 342 335 295 269 266 288 252 255 254 259 276 256 251 249 239 233 240 234 253 251 246 242 240 250 255 258 260
346 342 341 338 338 339 342 333 340 104 117 113 208 284 86 310 3 352 332 325 322 287 253 257 236 247 249 239 252 240 245 240 251 236 224 216 246 253 257 264 253 249 259 261 262
344 341 339 337 339 337 345 12 21 67 64 242 263 244 189 350 336 329 323 314 307 301 252 240 238 244 232 234 237 239 242 247 257 253 222 229 242 249 260 253 247 253 252 257 258
347 339 337 337 338 341 349 282 238 180 239 301 346 310 310 331 317 306 312 308 268 259 275 267 264 255 262 258 257 266 269 268 261 270 253 243 244 251 245 251 257 258 255 258 265
345 337 333 334 336 355 352 28 39 344 294 275 253 265 278 312 305 338 324 302 302 294 298 269 250 267 279 279 273 264 260 258 259 275 269 242 251 251 248 250 253 255 255 263 267
347 336 330 328 333 3 24 46 13 322 265 303 236 269 310 305 303 297 307 284 285 293 285 278 287 297 269 259 254 254 254 258 254 253 237 252 254 253 252 254 256 259 259 261 265
348 334 329 341 159 348 106 352 326 294 267 126 171 146 268 319 255 305 290 295 284 292 287 287 297 289 268 262 257 267 259 254 258 251 245 230 258 249 242 245 245 250 252 257 261
349 336 323 216 351 282 54 319 313 211 273 66 172 24 303 296 313 316 309 278 291 292 287 271 287 291 271 269 263 262 262 255 246 251 250 242 253 260 255 255 257 257 256 255 262
349 342 345 110 181 63 322 291 189 232 225 151 262 314 310 326 298 308 290 284 265 276 270 269 275 258 273 281 265 259 257 246 248 249 239 237 238 252 252 256 255 254 255 249 252
348 355 96 136 60 295 324 196 251 268 115 45 325 320 317 309 308 331 326 317 326 312 321 312 339 348 321 256 245 234 243 240 228 226 241 237 234 238 266 111 332 230 286 267 254
347 22 113 353 312 291 263 243 279 64 328 334 319 311 302 350 330 328 314 320 110 313 316 344 319 0 324 287 250 222 234 235 242 235 232 227 236 227 235 263 272 251 257 279 279
359 317 170 351 350 308 273 259 315 354 352 323 314 302 314 283 321 316 327 315 341 341 344 314 306 281 343 298 277 227 248 261 268 285 280 232 211 248 255 232 235 212 277 332 325
338 258 82 332 312 279 266 278 289 307 312 299 301 289 315 324 313 328 319 305 318 301 331 312 300 324 294 303 256 254 227 248 240 265 259 239 198 218 210 217 252 115 1 347 345
313 255 35 338 287 257 278 336 306 313 303 286 295 287 300 309 301 306 292 301 297 314 311 308 274 288 287 233 254 272 239 209 213 287 281 243 210 207 200 105 105 58 11 5 357
323 266 20 338 251 219 288 343 342 291 211 273 278 279 283 297 291 290 287 291 318 313 301 327 290 286 290 278 225 175 245 342 267 232 249 273 321 107 119 133 82 16 8 360 2
325 300 5 313 342 325 329 300 266 283 285 289 282 272 304 288 297 292 277 297 294 299 313 353 270 301 288 210 201 217 244 243 244 273 260 270 244 158 183 178 10 1 353 343 348
303 302 146 48 21 320 338 314 299 254 284 283 278 293 286 291 280 275 286 291 293 291 299 318 268 258 274 293 320 295 274 255 270 263 263 259 263 221 225 303 319 338 329 333 336
337 45 0 307 329 324 305 286 293 308 263 295 284 279 296 288 300 290 296 300 299 281 262 252 260 272 271 276 275 275 270 265 257 259 260 263 267 267 274 299 313 315 303 311 321
336 349 350 293 300 292 26 295 305 312 314 289 273 295 301 285 287 289 298 300 263 290 264 229 261 274 275 265 266 268 267 261 257 255 254 259 264 267 273 275 280 287 298 305 317
15 136 240 302 307 301 305 331 314 317 300 269 285 300 291 287 295 295 287 276 261 245 254 244 264 277 268 274 295 278 267 265 260 254 254 254 260 270 269 268 272 278 291 297 303